Poplar Bluff, MO

6:33 PM CDT on April 30, 2017 (GMT -0500)
Poplar Bluff Municipal

Weather History for KPOF - May, 2015

Change the Weather History Date:

Saturday, May 2, 2015

  Actual Average Record
Temperature  
Mean Temperature 60 °F -  
Max Temperature 75 °F 73 °F 91 °F (1943)
Min Temperature 44 °F 51 °F 35 °F (1918)
Degree Days  
Heating Degree Days 6    
Growing Degree Days 10 (Base 50)    
Moisture  
Dew Point 45 °F    
Average Humidity 61    
Maximum Humidity 90    
Minimum Humidity 28    
Precipitation  
Precipitation 0.00 in - - ()
Sea Level Pressure  
Sea Level Pressure 30.08 in    
Wind  
Wind Speed 2 mph (SW)    
Max Wind Speed 8 mph    
Max Gust Speed -    
Visibility 10 miles    
Events      
Averages and records for this station are not official NWS values.
T = Trace of Precipitation, MM = Missing Value Source: NWS Daily Summary

Daily Weather History Graph

Daily Weather History Graph

Search for Another Location

Airport or City:

Trip Planner

Search our weather history database for the weather conditions in past years. The results will help you decide how hot, cold, wet, or windy it might be!

Date:

Astronomy

May. 02, 2015 Rise Set
Actual Time 6:06 AM CDT 7:50 PM CDT
Civil Twilight 5:38 AM CDT 8:18 PM CDT
Nautical Twilight 5:05 AM CDT 8:52 PM CDT
Astronomical Twilight 4:29 AM CDT 9:28 PM CDT
Moon 6:38 PM CDT (5/2) 5:21 AM CDT (5/2)
Length of Visible Light 14h 39m
Length of Day
13h 44m
Waxing Gibbous, 98% of the Moon is Illuminated
May 2
Waxing Gibbous
May 3
Full
May 11
Last Quarter
May 17
New
May 25
First Quarter

Hourly Weather History & Observations

Time (CDT) Temp. Dew Point Humidity Pressure Visibility Wind Dir Wind Speed Gust Speed Precip Events Conditions
12:53 AM 48.0 °F 44.1 °F 86% 30.12 in 10.0 mi Calm Calm - N/A   Clear
1:53 AM 46.9 °F 43.0 °F 86% 30.12 in 10.0 mi Calm Calm - N/A   Clear
2:53 AM 46.0 °F 42.1 °F 86% 30.12 in 10.0 mi Calm Calm - N/A   Clear
3:53 AM 45.0 °F 42.1 °F 90% 30.12 in 10.0 mi Calm Calm - N/A   Clear
4:53 AM 44.1 °F 41.0 °F 89% 30.12 in 10.0 mi Calm Calm - N/A   Clear
5:53 AM 44.1 °F 39.9 °F 85% 30.13 in 10.0 mi Calm Calm - N/A   Clear
6:53 AM 46.0 °F 41.0 °F 83% 30.14 in 10.0 mi Calm Calm - N/A   Clear
7:53 AM 52.0 °F 45.0 °F 77% 30.16 in 10.0 mi Calm Calm - N/A   Clear
8:53 AM 57.9 °F 46.0 °F 65% 30.16 in 10.0 mi Calm Calm - N/A   Mostly Cloudy
9:53 AM 64.0 °F 44.1 °F 48% 30.15 in 10.0 mi SSW 6.9 mph - N/A   Clear
10:53 AM 66.9 °F 45.0 °F 45% 30.14 in 10.0 mi SW 8.1 mph - N/A   Mostly Cloudy
11:53 AM 70.0 °F 43.0 °F 38% 30.13 in 10.0 mi Variable 5.8 mph - N/A   Clear
12:53 PM 72.0 °F 44.1 °F 37% 30.10 in 10.0 mi SSW 8.1 mph - N/A   Clear
1:53 PM 73.9 °F 45.0 °F 35% 30.08 in 10.0 mi Variable 6.9 mph - N/A   Clear
2:53 PM 73.9 °F 44.1 °F 34% 30.05 in 10.0 mi WNW 5.8 mph - N/A   Clear
3:53 PM 75.9 °F 45.0 °F 33% 30.03 in 10.0 mi SSW 8.1 mph - N/A   Clear
4:53 PM 75.0 °F 41.0 °F 29% 30.01 in 10.0 mi SSW 6.9 mph - N/A   Clear
5:53 PM 75.0 °F 39.9 °F 28% 30.01 in 10.0 mi Variable 3.5 mph - N/A   Clear
6:53 PM 73.0 °F 45.0 °F 37% 30.01 in 10.0 mi SSW 4.6 mph - N/A   Clear
7:53 PM 64.9 °F 51.1 °F 61% 30.01 in 10.0 mi Calm Calm - N/A   Clear
8:53 PM 64.0 °F 46.9 °F 54% 30.02 in 10.0 mi Calm Calm - N/A   Clear
9:53 PM 59.0 °F 50.0 °F 72% 30.02 in 10.0 mi Calm Calm - N/A   Clear
10:53 PM 57.0 °F 51.1 °F 81% 30.02 in 9.0 mi Calm Calm - N/A   Clear
11:53 PM 55.0 °F 50.0 °F 83% 30.02 in 10.0 mi Calm Calm - N/A   Clear